Steven Brobbey

Scout - PSV
4 Dez 2028
Montag
Verarbeitung

Persönlichkeit

Anpassungsfähigkeit (9) Ehrgeiz (7) Kontroverse (12) Loyalität (16) Druck (16) Professionalität (7) Fairness (5) Temperament (2)

Profil

Trainerstil Demokratisch
Lizenz Nationale A
Entschlossenheit 15
Menschenführung 6
Motivation 16
Disziplin 13
Arbeitszufriedenheit
96%
Ermüdung
0%
Rolle Scout
Gehalt 18.8K p/W
Vertrag 14.03.2029

Leistung

Verhalten Gut
Trainingseffektivität
58%
Spielerentwicklung
45%
Verletzungsprävention
40%
Taktische Umsetzung
80%

Letzte Ereignisse

Nahm an einer Scouting-Besprechung teil jetzt
Empfahl ein Transferziel jetzt
Empfahl ein Transferziel jetzt
Nahm an einer Scouting-Besprechung teil 7T her
Empfahl ein Transferziel 7T her
Empfahl ein Transferziel 7T her
Empfahl ein Transferziel 7T her
Empfahl ein Transferziel 7T her

Aktuell beobachtet

69
Spieler Verein Status Fähigkeit Vertrauen Beobachtet Zuletzt beobachtet Letzte Stimme
Ties Wieggers De Graafschap Aktiv 126 / 126 30% 1 / 1m 08.11.2028 -
Tyrique Mercera Groningen Aktiv 126 / 118 86% 1 21.08.2028 Befürworten
Temirlan Anarbekov Kairat Aktiv 123 / 127 40% 1 17.08.2028 -
Alex Kouto Horio Pisano Nagoya Grampus Aktiv 119 / 138 40% 1 17.08.2028 -
Valerio Boffelli Cavese Aktiv 114 / 117 40% 2 16.08.2028 -
Muhammadyusuf Sobirov Bunyodkor Aktiv 113 / 133 40% 1 16.08.2028 -
Alexey Ploschadny Noah Aktiv 124 / 134 40% 1 16.08.2028 -
Karl Etta Eyong Real Sociedad Aktiv 154 / 154 40% 1 14.08.2028 -
Lorenzo Colombo Genoa Aktiv 145 / 139 40% 1 14.08.2028 -
Cristian Santander Barranquilla Aktiv 120 / 119 40% 1 07.08.2028 -
Guillaume Restes Toulouse FC Verloren 149 / 157 40% 1 24.07.2028 -
Robert Cook Accrington Stanley Aktiv 114 / 112 40% 1 24.07.2028 -
Jorthy Mokio ADO Den Haag Aktiv 136 / 147 40% 1 17.07.2028 -
Riquelme Thompson-Jones Accrington Stanley Verhandlung 115 / 121 40% 1 17.07.2028 -
Simone Suppa Virtus Verona Aktiv 88 / 95 40% 1 17.07.2028 -
Ryunosuke Sato Eibar Aktiv 139 / 132 40% 9 10.07.2028 -
Héctor Fort Real Sociedad Aktiv 148 / 154 40% 7 10.07.2028 -
Aarón Ochoa Málaga Aktiv 120 / 121 40% 3 10.07.2028 -
Joaquín Panichelli Twente Bericht bereit 148 / 146 86% 1 03.07.2028 -
Tristan van Gilst Heracles Bericht bereit 126 / 130 86% 1 26.06.2028 -
Pau Cubarsí Real Sociedad Aktiv 160 / 166 40% 1 21.06.2028 -
Cheveyo Tsawa Club Brugge Aktiv 126 / 137 40% 1 21.06.2028 -
Mohammed El Âdfaoui Westerlo Aktiv 118 / 128 40% 1 21.06.2028 -
Esmir Bajraktarević De Graafschap Bericht bereit 131 / 139 86% 1 12.06.2028 -
Gaoussou Diarra Heerenveen Verloren 128 / 123 86% 1 07.06.2028 -
Illaijh de Ruijter ADO Den Haag Bericht bereit 120 / 124 86% 1 04.06.2028 -
Ricardo Pepi Mallorca Aktiv 150 / 147 40% 2 01.06.2028 -
Pau Víctor Braga Aktiv 146 / 148 40% 1 01.06.2028 -
Jayden Danns Bradford City Aktiv 138 / 137 40% 1 01.06.2028 -
Nicolò Tresoldi Club Brugge Aktiv 138 / 139 40% 1 31.05.2028 -
Ryan McAidoo Oldham Athletic Aktiv 123 / 137 40% 5 29.05.2028 -
Rio Ngumoha Plymouth Argyle Aktiv 144 / 149 40% 2 29.05.2028 -
Mateus Mané Burnley Aktiv 144 / 152 40% 4 28.05.2028 -
Babis Kostoulas Oxford United Aktiv 141 / 138 40% 4 27.05.2028 -
Trey Nyoni Rotherham United Aktiv 141 / 137 40% 4 27.05.2028 -
Eli Junior Kroupi Bournemouth Aktiv 147 / 149 40% 4 26.05.2028 -
Amin Nabizada Exeter City Aktiv 111 / 119 40% 4 25.05.2028 -
Ibrahim Fullah Charlton Athletic Aktiv 120 / 128 40% 2 25.05.2028 -
Kevin Fulham Aktiv 157 / 156 40% 2 25.05.2028 -
Shea Lacey Crystal Palace Aktiv 132 / 137 40% 1 23.05.2028 -
Josh Nichols Oldham Athletic Aktiv 120 / 124 40% 7 21.05.2028 -
Luca Williams-Barnett Walsall Aktiv 125 / 124 40% 5 20.05.2028 -
Ez Abde Betis Aktiv 159 / 156 40% 2 20.05.2028 -
Ben Gannon Doak Charlton Athletic Aktiv 153 / 152 40% 1 20.05.2028 -
Honest Ahanor Atalanta Aktiv 137 / 140 40% 5 17.05.2028 -
Gabe Forsyth Colchester United Aktiv 111 / 110 40% 2 17.05.2028 -
Omar Khedr Gillingham Aktiv 116 / 121 40% 4 16.05.2028 -
Jorge Salinas Racing Santander Aktiv 135 / 145 40% 2 15.05.2028 -
Ryan Kavuma-McQueen Accrington Stanley Aktiv 119 / 126 40% 6 14.05.2028 -
Jan Bürger Northampton Town Aktiv 123 / 131 40% 4 13.05.2028 -
Jonathan Dubasin Osasuna Aktiv 151 / 156 40% 1 11.05.2028 -
Jaidon Anthony Derby County Aktiv 142 / 131 40% 1 10.05.2028 -
Malick Fofana Sunderland Aktiv 151 / 155 40% 1 10.05.2028 -
Iliman N'Diaye Everton Aktiv 163 / 168 40% 1 10.05.2028 -
Hugo Camberos Dorados Aktiv 136 / 142 40% 4 07.05.2028 -
Ben Broggio Mansfield Town Aktiv 110 / 125 40% 5 07.05.2028 -
Jan Virgili Club Brugge Aktiv 137 / 140 40% 2 06.05.2028 -
Marc Bernal Sevilla Aktiv 146 / 149 40% 1 06.05.2028 -
Gilberto Mora Guadalajara Aktiv 141 / 140 40% 4 03.05.2028 -
Sindre Walle Egeli Udinese Aktiv 138 / 145 40% 4 01.05.2028 -
Mustafa Hekimoğlu Antalyaspor Aktiv 133 / 129 40% 1 30.04.2028 -
Igor Tyjon Barrow AFC Aktiv 117 / 131 40% 1 30.04.2028 -
Gabriel Mec Feirense Aktiv 125 / 130 40% 1 19.04.2028 -
Julien Duranville Olympique Lyonnais Aktiv 138 / 142 40% 2 14.04.2028 -
Oscar Schwartau Norwich City Aktiv 130 / 141 40% 1 09.04.2028 -
Luca Meirelles Kudrivka Aktiv 120 / 126 40% 1 06.04.2028 -
Mexx Meerdink AZ Aktiv 132 / 120 86% 1 18.01.2027 Befürworten
Victor Jensen Utrecht Aktiv 120 / 134 83% 1 24.08.2026 Befürworten
Alonzo Engwanda Utrecht Aktiv 122 / 125 83% 1 17.08.2026 Befürworten